DW4212 La Cabrera ES current weather conditions

sailwx.info

Wind from 120 at 0 knots gusting 3

Air temperature 25.6° C
Dewpoint 10.9° C

Last reported at 2015-Aug-01 12:49 UTC.
Time now 2015-Aug-01 13:48 UTC

Location: N 40°53' W 003°35'.
View on Google Maps.

See reports from other nearby stations

  
Tides and Currents Weather Stations Pressure Air Temp Water Temp Dewpoint Dewpoint Depression Visibility Wind Speed Wind Dir Waves Ship Positions
date/time (UTC)wind fromknots sea level pressurealtimeterstation pressurevisibilityair tempwater tempwave heightnotes
2015-Aug-01 12:49 120 0 gusting 3 25.6
2015-Aug-01 12:39 197 25.6
2015-Aug-01 12:29 205 2 gusting 5 25.0
2015-Aug-01 12:19 161 0 gusting 4 25.6
2015-Aug-01 12:09 203 1 gusting 6 25.6
2015-Aug-01 11:59 182 0 gusting 4 25.0
2015-Aug-01 11:49 164 1 gusting 6 24.4
2015-Aug-01 11:29 203 0 gusting 5 24.4
2015-Aug-01 11:19 191 1 gusting 6 24.4
2015-Aug-01 11:09 203 1 gusting 5 24.4
2015-Aug-01 10:59 169 0 gusting 6 23.3
2015-Aug-01 10:49 187 0 gusting 6 23.9
2015-Aug-01 10:39 182 0 gusting 6 23.3
2015-Aug-01 10:29 160 23.3
2015-Aug-01 10:19 182 2 gusting 6 23.3
2015-Aug-01 10:09 198 0 gusting 5 23.9
2015-Aug-01 09:59 175 23.3
2015-Aug-01 09:49 170 22.8
2015-Aug-01 09:39 140 0 gusting 6 22.8
2015-Aug-01 09:29 184 0 gusting 6 22.8
2015-Aug-01 09:19 182 0 gusting 6 22.8
2015-Aug-01 09:09 200 23.3
2015-Aug-01 08:59 196 0 gusting 4 22.8
2015-Aug-01 08:49 005 22.2
2015-Aug-01 08:39 005 21.7
2015-Aug-01 08:29 005 20.6
2015-Aug-01 08:19 005 20.0
2015-Aug-01 08:09 005 19.4
2015-Aug-01 07:59 005 19.4
2015-Aug-01 07:49 005 18.9
2015-Aug-01 07:39 005 18.3
2015-Aug-01 07:29 005 17.8
2015-Aug-01 07:19 005 17.8
2015-Aug-01 07:09 005 17.2
2015-Aug-01 06:59 005 16.7
2015-Aug-01 06:49 005 16.7
2015-Aug-01 06:39 005 15.6
2015-Aug-01 06:29 005 15.0
2015-Aug-01 06:19 005 14.4
2015-Aug-01 06:09 005 13.9
2015-Aug-01 05:59 005 13.9
2015-Aug-01 05:49 005 13.3
2015-Aug-01 05:39 005 12.8
2015-Aug-01 05:29 005 12.8
2015-Aug-01 05:19 005 12.8
2015-Aug-01 05:09 005 12.8
2015-Aug-01 04:59 005 12.8
2015-Aug-01 04:49 005 12.8
2015-Aug-01 04:39 005 12.8
2015-Aug-01 04:29 005 12.8
2015-Aug-01 04:19 005 12.8
2015-Aug-01 04:09 005 12.8
2015-Aug-01 03:59 005 12.8
2015-Aug-01 03:49 005 12.8
2015-Aug-01 03:39 005 13.3
2015-Aug-01 03:29 005 13.3
2015-Aug-01 03:19 005 13.3
2015-Aug-01 03:09 005 13.9
2015-Aug-01 02:59 005 13.9
2015-Aug-01 02:49 005 13.9
2015-Aug-01 02:39 005 14.4
2015-Aug-01 02:29 005 14.4
2015-Aug-01 02:19 005 14.4
2015-Aug-01 02:09 005 14.4
2015-Aug-01 01:59 005 14.4
2015-Aug-01 01:49 005 14.4
2015-Aug-01 01:39 005 1 gusting 3 15.0
2015-Aug-01 01:29 009 15.0
2015-Aug-01 01:19 009 0 gusting 2 15.0
2015-Aug-01 01:09 009 15.0
2015-Aug-01 00:59 009 15.6
2015-Aug-01 00:49 009 0 gusting 3 15.6
2015-Aug-01 00:39 009 15.6
2015-Aug-01 00:29 005 0 gusting 5 15.6
2015-Aug-01 00:19 009 0 gusting 5 15.6
2015-Aug-01 00:09 029 0 gusting 4 15.6
2015-Jul-31 23:59 065 15.6
2015-Jul-31 23:49 065 15.6
2015-Jul-31 23:39 067 15.6
2015-Jul-31 23:29 072 15.6
2015-Jul-31 23:19 072 16.1
2015-Jul-31 23:09 072 16.1
2015-Jul-31 22:59 072 16.1
2015-Jul-31 22:49 072 16.1
2015-Jul-31 22:39 072 16.7
2015-Jul-31 22:29 072 16.7
2015-Jul-31 22:19 072 16.7
2015-Jul-31 22:09 072 16.7
2015-Jul-31 21:59 072 17.2
2015-Jul-31 21:49 072 17.2
2015-Jul-31 21:39 072 0 gusting 3 17.2
2015-Jul-31 21:29 085 17.2
2015-Jul-31 21:09 071 0 gusting 6 17.2
2015-Jul-31 20:59 080 17.2
2015-Jul-31 20:49 087 2 gusting 11 17.2
2015-Jul-31 20:39 072 3 gusting 9 17.2
2015-Jul-31 20:29 091 4 gusting 6 18.3
2015-Jul-31 20:19 099 18.3
2015-Jul-31 20:09 098 18.3
2015-Jul-31 19:59 098 18.9
2015-Jul-31 19:49 058 0 gusting 4 19.4
2015-Jul-31 19:39 360 18.9
2015-Jul-31 19:29 005 0 gusting 6 18.9
2015-Jul-31 19:19 005 3 gusting 6 18.9
2015-Jul-31 19:09 005 1 gusting 7 18.9
2015-Jul-31 18:59 355 3 gusting 7 18.9
2015-Jul-31 18:49 005 3 gusting 12 19.4
2015-Jul-31 18:39 017 4 gusting 10 20.0
2015-Jul-31 18:29 323 2 gusting 10 20.6
2015-Jul-31 18:19 321 5 gusting 13 20.6
2015-Jul-31 18:09 017 4 gusting 8 21.1
2015-Jul-31 17:59 285 4 gusting 9 21.1
2015-Jul-31 17:49 010 5 gusting 11 21.7
2015-Jul-31 17:39 360 4 gusting 14 22.8
2015-Jul-31 17:29 335 2 gusting 8 24.4
2015-Jul-31 17:19 326 1 gusting 9 25.0
2015-Jul-31 17:09 340 3 gusting 10 26.1
2015-Jul-31 16:59 005 1 gusting 7 26.7
2015-Jul-31 16:49 355 1 gusting 7 26.7
2015-Jul-31 16:39 309 26.7
2015-Jul-31 16:29 333 1 gusting 4 27.2
2015-Jul-31 16:09 346 0 gusting 9 27.2
2015-Jul-31 15:59 336 1 gusting 11 27.8
2015-Jul-31 15:49 261 0 gusting 11 28.9
2015-Jul-31 15:39 259 1 gusting 13 28.3
2015-Jul-31 15:29 257 3 gusting 15 28.3
2015-Jul-31 15:19 262 5 gusting 13 28.3
2015-Jul-31 11:29 255 0 gusting 6 25.0
2015-Jul-31 11:19 257 1 gusting 6 23.9
2015-Jul-31 11:09 235 0 gusting 4 22.8
2015-Jul-31 10:59 246 21.1
2015-Jul-31 10:49 254 0 gusting 5 20.0
2015-Jul-31 10:39 261 2 gusting 7 20.0
2015-Jul-31 10:29 257 20.6
2015-Jul-31 10:19 273 21.1
2015-Jul-31 09:49 214 2 gusting 6 25.6
2015-Jul-31 09:19 203 1 gusting 6 25.6
2015-Jul-31 09:09 178 0 gusting 6 25.0
2015-Jul-31 08:59 188 1 gusting 6 25.0
2015-Jul-31 08:49 223 0 gusting 2 25.0
2015-Jul-31 08:39 198 24.4
2015-Jul-31 08:29 205 0 gusting 3 23.9
2015-Jul-31 08:19 185 22.8
2015-Jul-31 08:09 057 22.2
2015-Jul-31 07:59 057 22.2
2015-Jul-31 07:49 057 21.1
2015-Jul-31 07:39 057 20.6
2015-Jul-31 07:29 057 20.0
2015-Jul-31 07:19 057 19.4
2015-Jul-31 07:09 057 19.4
2015-Jul-31 06:59 057 19.4
2015-Jul-31 06:49 057 19.4
2015-Jul-31 06:39 057 19.4
2015-Jul-31 06:29 057 18.9
2015-Jul-31 06:19 057 18.9
2015-Jul-31 06:09 057 18.3
2015-Jul-31 05:59 057 17.8
2015-Jul-31 05:49 057 17.2
2015-Jul-31 05:39 057 17.2
2015-Jul-31 05:29 057 17.2
2015-Jul-31 05:19 057 17.2
2015-Jul-31 05:09 057 17.2
2015-Jul-31 04:59 057 17.2
2015-Jul-31 04:49 057 17.2
2015-Jul-31 04:39 057 17.2
2015-Jul-31 04:29 057 17.2
2015-Jul-31 04:19 057 17.2
2015-Jul-31 04:09 057 17.2
2015-Jul-31 03:59 057 17.2
2015-Jul-31 03:49 057 17.2
2015-Jul-31 03:39 057 17.2
2015-Jul-31 03:29 057 17.2
2015-Jul-31 03:19 057 17.2
2015-Jul-31 03:09 057 17.2
2015-Jul-31 02:59 057 17.2
2015-Jul-31 02:49 057 17.2
2015-Jul-31 02:39 057 17.2
2015-Jul-31 02:29 057 17.2
2015-Jul-31 02:19 057 17.2
2015-Jul-31 02:09 057 17.8
2015-Jul-31 01:59 057 17.8
2015-Jul-31 01:49 057 17.8
2015-Jul-31 01:39 057 17.8
2015-Jul-31 01:29 057 17.8
2015-Jul-31 01:19 057 17.8
2015-Jul-31 01:09 057 17.8
2015-Jul-31 00:59 057 17.8
2015-Jul-31 00:49 057 17.8
2015-Jul-31 00:39 057 18.3
2015-Jul-31 00:29 057 18.3
2015-Jul-31 00:19 057 18.3
2015-Jul-31 00:09 057 18.3
2015-Jul-30 23:59 057 18.3
2015-Jul-30 23:49 057 18.3
2015-Jul-30 23:39 057 284 gusting 284 18.3
2015-Jul-30 23:29 057 18.9
2015-Jul-30 23:19 057 18.9
2015-Jul-30 22:59 057 18.9
2015-Jul-30 22:49 057 19.4
2015-Jul-30 22:39 057 19.4
2015-Jul-30 22:29 057 20.0
2015-Jul-30 22:19 057 20.0
2015-Jul-30 22:09 057 20.0
2015-Jul-30 21:59 057 20.0
2015-Jul-30 21:49 057 20.6
2015-Jul-30 21:39 057 20.6
2015-Jul-30 21:29 057 20.6
2015-Jul-30 21:19 057 21.1
2015-Jul-30 21:09 055 21.1
2015-Jul-30 20:59 055 21.1
2015-Jul-30 20:49 057 21.1
2015-Jul-30 20:39 057 21.1
2015-Jul-30 20:29 057 21.1
2015-Jul-30 20:19 053 21.1
2015-Jul-30 20:09 030 21.1
2015-Jul-30 19:59 026 21.1
2015-Jul-30 19:49 011 21.7
2015-Jul-30 19:39 011 22.2
2015-Jul-30 19:29 011 22.2
2015-Jul-30 19:19 011 22.2
2015-Jul-30 19:09 011 22.2
2015-Jul-30 18:59 011 22.2
2015-Jul-30 18:49 005 22.8
2015-Jul-30 18:39 360 22.8
2015-Jul-30 18:29 360 22.8
2015-Jul-30 18:19 360 23.3
2015-Jul-30 18:09 360 23.3
2015-Jul-30 17:59 360 23.3
2015-Jul-30 17:49 360 23.3
2015-Jul-30 17:39 360 23.3
2015-Jul-30 17:29 360 0 gusting 5 23.3
2015-Jul-30 17:19 005 2 gusting 6 22.8
2015-Jul-30 17:09 005 2 gusting 6 22.8
2015-Jul-30 16:59 360 2 gusting 6 22.2
2015-Jul-30 16:50 011 3 gusting 8 22.2
2015-Jul-30 16:39 005 3 gusting 6 22.2
2015-Jul-30 16:29 355 1 gusting 5 22.8
2015-Jul-30 16:19 005 0 gusting 5 22.8
2015-Jul-30 16:09 005 0 gusting 5 22.8
2015-Jul-30 15:59 360 2 gusting 5 22.8
2015-Jul-30 15:49 355 0 gusting 8 21.7
2015-Jul-30 15:39 360 3 gusting 6 21.1
2015-Jul-30 15:29 311 2 gusting 6 20.6
2015-Jul-30 15:19 340 0 gusting 6 20.0
2015-Jul-30 15:09 360 2 gusting 10 20.0
2015-Jul-30 14:59 333 20.0
2015-Jul-30 14:49 333 20.6
2015-Jul-30 14:39 005 21.1
2015-Jul-30 14:29 355 21.1
2015-Jul-30 14:19 355 21.1
2015-Jul-30 14:09 355 21.7
2015-Jul-30 13:59 355 21.1
2015-Jul-30 13:49 355 21.7
2015-Jul-30 13:39 355 22.2
2015-Jul-30 13:29 005 2 gusting 6 26.1
2015-Jul-30 13:19 257 29.4